WXM80 ListenWXM80 Stop

You find our weather info also at:

UK Metoffice

WeatherCloud

Weather Underground

Northeastern Weather Network

AWEKAS

Citizen Weather Observer Program (CWOP)

HAMweather, WeatherForYou, PWS Weather


Weather Underground History page Text

Daily Summary for December 4, 2017 Units:  Metric    English   Both
« Previous Day
Next Day »
Daily Weekly Monthly Yearly Custom
  High: Low: Average:
Temperature: 9.3 °C 1 °C 5.3 °C
Dew Point: 6.1 °C 0.2 °C 3.4 °C
Humidity: 97 % 79 % 88 %
Wind Speed: 9 km/h 0 km/h 1.9 km/h
Wind Gust: 14.8 km/h - -
Wind:- - East
Pressure: 1031.4 hPa 1026.3 hPa -
Precipitation: 0 mm    
Historical Graphs
 
 
Tabular Data for December 4, 2017
Time Temperature Dew Point Pressure Wind Wind Speed Wind Gust Humidity Rainfall Rate (Hourly)
00:04 3.4 °C 2.1 °C 1026.3 hPa Calm     91 % 0 mm
00:09 3.3 °C 2 °C 1026.3 hPa Calm     91 % 0 mm
00:14 3.3 °C 1.9 °C 1026.3 hPa Calm     91 % 0 mm
00:19 3.2 °C 1.8 °C 1026.3 hPa Calm   1.6 km/h 91 % 0 mm
00:20 3.2 °C 1.8 °C 1026.3 hPa ENE 0.5 km/h 1.9 km/h 91 % 0 mm
00:25 3.1 °C 1.8 °C 1026.3 hPa Calm     91 % 0 mm
00:30 3 °C 1.7 °C 1026.3 hPa Calm     91 % 0 mm
00:35 2.9 °C 1.6 °C 1026.3 hPa ENE 0.8 km/h 1.9 km/h 91 % 0 mm
00:40 2.9 °C 1.7 °C 1026.3 hPa Calm     92 % 0 mm
00:45 2.8 °C 1.7 °C 1026.3 hPa Calm     92 % 0 mm
00:50 2.8 °C 1.6 °C 1026.3 hPa Calm     92 % 0 mm
00:55 2.7 °C 1.6 °C 1026.3 hPa Calm     92 % 0 mm
01:00 2.7 °C 1.5 °C 1026.3 hPa Calm     92 % 0 mm
01:05 2.7 °C 1.5 °C 1026.3 hPa Calm   1.9 km/h 92 % 0 mm
01:10 2.6 °C 1.4 °C 1026.3 hPa ENE 0.5 km/h 1.9 km/h 92 % 0 mm
01:15 2.6 °C 1.4 °C 1026.3 hPa Calm     92 % 0 mm
01:20 2.7 °C 1.5 °C 1026.3 hPa Calm     92 % 0 mm
01:25 2.7 °C 1.5 °C 1026.3 hPa Calm     92 % 0 mm
01:30 2.7 °C 1.7 °C 1026.3 hPa Calm     93 % 0 mm
01:35 2.7 °C 1.7 °C 1026.3 hPa Calm     93 % 0 mm
01:40 2.7 °C 1.7 °C 1026.3 hPa Calm     93 % 0 mm
01:45 2.6 °C 1.6 °C 1026.6 hPa Calm   1.9 km/h 93 % 0 mm
01:50 2.6 °C 1.6 °C 1026.6 hPa Calm     93 % 0 mm
01:55 2.6 °C 1.6 °C 1026.6 hPa Calm     93 % 0 mm
02:00 2.6 °C 1.6 °C 1026.6 hPa Calm     93 % 0 mm
02:05 2.6 °C 1.6 °C 1026.6 hPa Calm     93 % 0 mm
02:10 2.5 °C 1.5 °C 1026.6 hPa Calm   1.9 km/h 93 % 0 mm
02:15 2.4 °C 1.4 °C 1026.6 hPa NNE 0.3 km/h 1.9 km/h 93 % 0 mm
02:20 2.4 °C 1.4 °C 1026.6 hPa Calm     93 % 0 mm
02:25 2.4 °C 1.4 °C 1026.6 hPa Calm     93 % 0 mm
02:30 2.4 °C 1.4 °C 1026.6 hPa Calm     93 % 0 mm
02:35 2.4 °C 1.4 °C 1027 hPa NE 1.1 km/h 5.6 km/h 93 % 0 mm
02:40 2.4 °C 1.4 °C 1027 hPa Calm     93 % 0 mm
02:45 2.4 °C 1.4 °C 1027 hPa Calm     93 % 0 mm
02:50 2.4 °C 1.6 °C 1027 hPa Calm     94 % 0 mm
02:55 2.4 °C 1.6 °C 1027 hPa Calm     94 % 0 mm
03:00 2.4 °C 1.6 °C 1027 hPa Calm     94 % 0 mm
03:05 2.4 °C 1.6 °C 1027.3 hPa Calm     94 % 0 mm
03:10 2.4 °C 1.6 °C 1027 hPa Calm     94 % 0 mm
03:15 2.4 °C 1.6 °C 1027.3 hPa Calm     94 % 0 mm
03:20 2.4 °C 1.5 °C 1027 hPa Calm     94 % 0 mm
03:25 2.4 °C 1.5 °C 1027 hPa Calm     94 % 0 mm
03:30 2.4 °C 1.5 °C 1027.3 hPa NE 0.3 km/h 1.6 km/h 94 % 0 mm
03:35 2.3 °C 1.4 °C 1027.3 hPa Calm     94 % 0 mm
03:40 2.3 °C 1.4 °C 1027.3 hPa Calm     94 % 0 mm
03:45 2.3 °C 1.4 °C 1027.3 hPa Calm     94 % 0 mm
03:50 2.3 °C 1.4 °C 1027.7 hPa Calm     94 % 0 mm
03:55 2.3 °C 1.4 °C 1028 hPa NE 1.4 km/h 1.9 km/h 94 % 0 mm
03:57 2.3 °C 1.4 °C 1028 hPa NE 1.1 km/h 1.9 km/h 94 % 0 mm
04:02 2.3 °C 1.4 °C 1027.7 hPa Calm     94 % 0 mm
04:07 2.3 °C 1.4 °C 1027.7 hPa NE 0.5 km/h 1.9 km/h 94 % 0 mm
04:13 2.2 °C 1.3 °C 1027.7 hPa Calm     94 % 0 mm
04:18 2.2 °C 1.3 °C 1027.7 hPa Calm     94 % 0 mm
04:23 2.2 °C 1.3 °C 1027.7 hPa Calm     94 % 0 mm
04:28 2.2 °C 1.3 °C 1027.7 hPa Calm     94 % 0 mm
04:33 2.1 °C 1.2 °C 1027.7 hPa NE 0.2 km/h 1.9 km/h 94 % 0 mm
04:38 2.1 °C 1.2 °C 1027.7 hPa Calm     94 % 0 mm
04:43 1.9 °C 1.1 °C 1027.7 hPa Calm     94 % 0 mm
04:48 1.9 °C 1 °C 1027.7 hPa Calm   1.9 km/h 94 % 0 mm
04:53 1.8 °C 0.9 °C 1027.7 hPa Calm     94 % 0 mm
04:58 1.7 °C 0.8 °C 1028 hPa Calm     94 % 0 mm
05:03 1.7 °C 0.8 °C 1028 hPa Calm     94 % 0 mm
05:08 1.7 °C 0.8 °C 1028 hPa Calm     94 % 0 mm
05:13 1.7 °C 0.8 °C 1028 hPa Calm     94 % 0 mm
05:18 1.6 °C 0.7 °C 1028 hPa Calm     94 % 0 mm
05:23 1.6 °C 0.7 °C 1028.3 hPa Calm     94 % 0 mm
05:28 1.5 °C 0.7 °C 1028.3 hPa NE 0.5 km/h 1.9 km/h 94 % 0 mm
05:33 1.4 °C 0.6 °C 1028 hPa Calm     94 % 0 mm
05:38 1.4 °C 0.6 °C 1028.3 hPa Calm     94 % 0 mm
05:43 1.3 °C 0.5 °C 1028.3 hPa Calm     94 % 0 mm
05:49 1.3 °C 0.5 °C 1028.3 hPa Calm     94 % 0 mm
05:53 1.3 °C 0.5 °C 1028.3 hPa Calm     94 % 0 mm
05:58 1.3 °C 0.5 °C 1028.7 hPa Calm     94 % 0 mm
06:04 1.3 °C 0.4 °C 1028.7 hPa Calm     94 % 0 mm
06:09 1.3 °C 0.4 °C 1028.7 hPa Calm     94 % 0 mm
06:14 1.3 °C 0.4 °C 1028.7 hPa Calm     94 % 0 mm
06:19 1.3 °C 0.4 °C 1028.7 hPa Calm     94 % 0 mm
06:24 1.2 °C 0.4 °C 1028.7 hPa Calm     94 % 0 mm
06:29 1.2 °C 0.4 °C 1029 hPa Calm     94 % 0 mm
06:34 1.2 °C 0.3 °C 1029 hPa Calm     94 % 0 mm
06:39 1.1 °C 0.3 °C 1029 hPa Calm     94 % 0 mm
06:40 1.1 °C 0.3 °C 1029 hPa Calm     94 % 0 mm
06:45 1.1 °C 0.2 °C 1029 hPa Calm     94 % 0 mm
06:50 1.1 °C 0.2 °C 1029.3 hPa Calm     94 % 0 mm
06:55 1 °C 0.2 °C 1029.3 hPa Calm     94 % 0 mm
07:00 1 °C 0.2 °C 1029.3 hPa Calm     94 % 0 mm
07:05 1.1 °C 0.2 °C 1029.3 hPa Calm     94 % 0 mm
07:10 1.1 °C 0.2 °C 1029.3 hPa Calm     94 % 0 mm
07:15 1.1 °C 0.3 °C 1029.7 hPa Calm     94 % 0 mm
07:20 1.1 °C 0.4 °C 1029.7 hPa Calm     95 % 0 mm
07:25 1.2 °C 0.4 °C 1029.7 hPa Calm     95 % 0 mm
07:30 1.2 °C 0.5 °C 1030 hPa Calm     95 % 0 mm
07:35 1.2 °C 0.5 °C 1030 hPa Calm     95 % 0 mm
07:40 1.3 °C 0.6 °C 1030.4 hPa Calm     95 % 0 mm
07:45 1.3 °C 0.6 °C 1030.4 hPa Calm     95 % 0 mm
07:50 1.3 °C 0.6 °C 1030.4 hPa Calm     95 % 0 mm
07:55 1.4 °C 0.7 °C 1030.4 hPa Calm     95 % 0 mm
08:00 1.4 °C 0.7 °C 1030.4 hPa Calm     95 % 0 mm
08:05 1.5 °C 0.8 °C 1030.4 hPa Calm     95 % 0 mm
08:10 1.7 °C 0.9 °C 1030.4 hPa Calm     95 % 0 mm
08:15 1.8 °C 1.1 °C 1030.7 hPa Calm   1.9 km/h 95 % 0 mm
08:20 2.1 °C 1.5 °C 1030.7 hPa ENE 0.8 km/h 3.7 km/h 96 % 0 mm
08:25 2.3 °C 1.7 °C 1030.7 hPa ENE 1.9 km/h 5.6 km/h 96 % 0 mm
08:30 2.7 °C 2.2 °C 1030.7 hPa ENE 3.5 km/h 5.6 km/h 96 % 0 mm
08:35 3.5 °C 3.1 °C 1030.7 hPa ENE 4 km/h 6.4 km/h 97 % 0 mm
08:40 4.1 °C 3.7 °C 1030.7 hPa ENE 6 km/h 7.4 km/h 97 % 0 mm
08:45 4.5 °C 4.1 °C 1030.7 hPa ENE 9 km/h 14.8 km/h 97 % 0 mm
08:50 4.8 °C 4.3 °C 1030.7 hPa NE 8 km/h 11.1 km/h 97 % 0 mm
08:55 5.1 °C 4.6 °C 1031 hPa NE 5.1 km/h 9.3 km/h 97 % 0 mm
09:00 5.3 °C 4.8 °C 1031 hPa ENE 8 km/h 11.3 km/h 97 % 0 mm
09:05 5.5 °C 5.1 °C 1031 hPa ENE 7.4 km/h 13 km/h 97 % 0 mm
09:10 5.7 °C 5.1 °C 1031 hPa ENE 8 km/h 11.1 km/h 96 % 0 mm
09:15 5.9 °C 5.2 °C 1031 hPa ENE 6.8 km/h 9.3 km/h 95 % 0 mm
09:21 6.1 °C 5.3 °C 1031 hPa ENE 6.3 km/h 11.1 km/h 95 % 0 mm
09:26 6.3 °C 5.4 °C 1031 hPa ENE 6 km/h 11.1 km/h 94 % 0 mm
09:31 6.5 °C 5.4 °C 1031 hPa NE 7.4 km/h 9.3 km/h 93 % 0 mm
09:36 6.7 °C 5.5 °C 1031 hPa ENE 6.1 km/h 11.3 km/h 92 % 0 mm
09:40 6.9 °C 5.5 °C 1031 hPa ENE 4.8 km/h 7.4 km/h 91 % 0 mm
09:46 7.1 °C 5.7 °C 1031.4 hPa ENE 8 km/h 12.9 km/h 91 % 0 mm
09:51 7.3 °C 5.8 °C 1031.4 hPa ENE 4.5 km/h 9.3 km/h 90 % 0 mm
09:56 7.6 °C 5.7 °C 1031.4 hPa ENE 4.5 km/h 11.1 km/h 88 % 0 mm
10:00 7.8 °C 5.8 °C 1031.4 hPa NE 6.9 km/h 13 km/h 87 % 0 mm
10:05 7.9 °C 5.7 °C 1031.4 hPa ENE 5.3 km/h 11.1 km/h 86 % 0 mm
10:10 8.1 °C 5.7 °C 1031.4 hPa ENE 8.4 km/h 11.1 km/h 85 % 0 mm
10:13 8.1 °C 5.7 °C 1031.4 hPa ENE 8.2 km/h 11.1 km/h 85 % 0 mm
10:18 8.2 °C 5.6 °C 1031.4 hPa ENE 6.4 km/h 11.1 km/h 84 % 0 mm
10:23 8.1 °C 5.6 °C 1031.4 hPa ENE 5.3 km/h 8 km/h 84 % 0 mm
10:28 8.2 °C 5.6 °C 1031.4 hPa ENE 7.9 km/h 13 km/h 84 % 0 mm
10:33 8.2 °C 5.6 °C 1031.4 hPa ENE 5.3 km/h 11.1 km/h 84 % 0 mm
10:38 8.1 °C 5.6 °C 1031.4 hPa ENE 6 km/h 8 km/h 84 % 0 mm
10:43 8.2 °C 5.6 °C 1031.4 hPa ENE 5.6 km/h 11.1 km/h 84 % 0 mm
10:48 8.2 °C 5.6 °C 1031.4 hPa ENE 5.6 km/h 11.1 km/h 84 % 0 mm
10:53 8.2 °C 5.4 °C 1031 hPa ENE 7.9 km/h 11.3 km/h 83 % 0 mm
10:59 8.2 °C 5.4 °C 1031 hPa NE 5.3 km/h 7.4 km/h 83 % 0 mm
11:04 8.2 °C 5.5 °C 1031 hPa ENE 6.6 km/h 11.1 km/h 83 % 0 mm
11:09 8.2 °C 5.4 °C 1031 hPa NE 5.1 km/h 8 km/h 83 % 0 mm
11:14 8.2 °C 5.4 °C 1031 hPa ENE 6.9 km/h 11.3 km/h 83 % 0 mm
11:19 8.2 °C 5.4 °C 1031 hPa NE 4.7 km/h 9.3 km/h 83 % 0 mm
11:24 8.2 °C 5.5 °C 1031 hPa East 4 km/h 7.4 km/h 83 % 0 mm
11:29 8.3 °C 5.4 °C 1031 hPa NE 2.9 km/h 7.4 km/h 82 % 0 mm
11:34 8.3 °C 5.4 °C 1031 hPa ENE 4.2 km/h 7.4 km/h 82 % 0 mm
11:39 8.3 °C 5.4 °C 1031 hPa East 5 km/h 7.4 km/h 82 % 0 mm
11:44 8.3 °C 5.4 °C 1031 hPa NE 2.4 km/h 5.6 km/h 82 % 0 mm
11:49 8.3 °C 5.4 °C 1031 hPa ENE 5.8 km/h 8 km/h 82 % 0 mm
11:54 8.4 °C 5.3 °C 1031 hPa ENE 6.1 km/h 11.1 km/h 81 % 0 mm
11:59 8.4 °C 5.4 °C 1030.7 hPa NE 6.4 km/h 9.3 km/h 81 % 0 mm
12:04 8.5 °C 5.2 °C 1030.7 hPa ENE 4.8 km/h 7.4 km/h 80 % 0 mm
12:09 8.6 °C 5.3 °C 1030.7 hPa ENE 5.1 km/h 6.4 km/h 80 % 0 mm
12:14 8.7 °C 5.4 °C 1030.7 hPa East 3.1 km/h 7.4 km/h 80 % 0 mm
12:19 8.8 °C 5.6 °C 1030.7 hPa NE 5.6 km/h 11.1 km/h 80 % 0 mm
12:24 9.1 °C 5.9 °C 1030.7 hPa ENE 2.7 km/h 7.4 km/h 81 % 0 mm
12:29 9.2 °C 5.9 °C 1030.7 hPa ENE 3.4 km/h 5.6 km/h 80 % 0 mm
12:34 9.1 °C 5.8 °C 1030.4 hPa NE 4.2 km/h 11.1 km/h 80 % 0 mm
12:39 9.2 °C 5.9 °C 1030.4 hPa ENE 2.6 km/h 5.6 km/h 80 % 0 mm
12:44 9.2 °C 5.9 °C 1030.7 hPa NE 3.7 km/h 7.4 km/h 80 % 0 mm
12:49 9.2 °C 5.9 °C 1030.4 hPa ENE 4.7 km/h 8 km/h 80 % 0 mm
12:51 9.2 °C 5.9 °C 1030.4 hPa NE 4.8 km/h 8 km/h 80 % 0 mm
12:56 9.1 °C 5.8 °C 1030.4 hPa ENE 8 km/h 11.3 km/h 80 % 0 mm
13:01 9.1 °C 5.8 °C 1030.4 hPa ENE 5 km/h 11.1 km/h 80 % 0 mm
13:06 9.1 °C 5.9 °C 1030.4 hPa ENE 4.2 km/h 5.6 km/h 81 % 0 mm
13:11 9 °C 5.7 °C 1030.4 hPa ENE 4.8 km/h 7.4 km/h 80 % 0 mm
13:16 9.1 °C 5.9 °C 1030.4 hPa ENE 4.7 km/h 5.6 km/h 81 % 0 mm
13:21 9.1 °C 5.8 °C 1030.4 hPa ENE 4.8 km/h 9.7 km/h 80 % 0 mm
13:23 9.1 °C 5.8 °C 1030.4 hPa ENE 4.3 km/h 6.4 km/h 80 % 0 mm
13:28 9.2 °C 6.1 °C 1030 hPa NE 4.2 km/h 8 km/h 81 % 0 mm
13:33 9.2 °C 5.9 °C 1030 hPa ENE 4.3 km/h 8 km/h 80 % 0 mm
13:38 9.2 °C 6.1 °C 1030 hPa NE 5.5 km/h 8 km/h 81 % 0 mm
13:43 9.3 °C 6 °C 1030 hPa NE 2.4 km/h 7.4 km/h 80 % 0 mm
13:49 9.2 °C 5.9 °C 1030 hPa ENE 8 km/h 8 km/h 80 % 0 mm
13:59 9.1 °C 5.8 °C 1030 hPa East 7.6 km/h 9.7 km/h 80 % 0 mm
14:04 9.1 °C 5.6 °C 1030 hPa ENE 6.1 km/h 11.1 km/h 79 % 0 mm
14:09 9.1 °C 5.8 °C 1030 hPa ENE 3.2 km/h 7.4 km/h 80 % 0 mm
14:14 9 °C 5.7 °C 1030 hPa ENE 5.5 km/h 7.4 km/h 80 % 0 mm
14:19 8.9 °C 5.5 °C 1030 hPa ENE 7.9 km/h 11.1 km/h 79 % 0 mm
14:24 8.9 °C 5.6 °C 1030 hPa ENE 4.5 km/h 7.4 km/h 80 % 0 mm
14:29 8.8 °C 5.6 °C 1029.7 hPa East 7.1 km/h 9.3 km/h 80 % 0 mm
14:32 8.8 °C 5.6 °C 1029.7 hPa ENE 4.2 km/h 5.6 km/h 80 % 0 mm
14:37 8.8 °C 5.5 °C 1030 hPa East 5.1 km/h 7.4 km/h 80 % 0 mm
14:42 8.8 °C 5.5 °C 1030 hPa East 4.7 km/h 7.4 km/h 80 % 0 mm
14:47 8.7 °C 5.4 °C 1030 hPa ENE 4.5 km/h 7.4 km/h 80 % 0 mm
14:52 8.6 °C 5.6 °C 1030 hPa ENE 3.2 km/h 7.4 km/h 81 % 0 mm
14:57 8.6 °C 5.5 °C 1030 hPa East 5.8 km/h 8 km/h 81 % 0 mm
15:02 8.4 °C 5.4 °C 1030.4 hPa East 3.5 km/h 7.4 km/h 81 % 0 mm
15:07 8.3 °C 5.4 °C 1030.4 hPa East 1 km/h 3.7 km/h 82 % 0 mm
15:12 8.3 °C 5.4 °C 1030.4 hPa East 2.9 km/h 5.6 km/h 82 % 0 mm
15:17 8.2 °C 5.3 °C 1030.4 hPa East 1.8 km/h 5.6 km/h 82 % 0 mm
15:22 8.2 °C 5.3 °C 1030.4 hPa East 2.6 km/h 3.7 km/h 82 % 0 mm
15:28 8.1 °C 5.2 °C 1030.4 hPa East 1.1 km/h 1.9 km/h 82 % 0 mm
15:33 8.1 °C 5.4 °C 1030.4 hPa Calm     83 % 0 mm
15:38 8.1 °C 5.4 °C 1030.4 hPa Calm   1.9 km/h 83 % 0 mm
15:43 8.1 °C 5.2 °C 1030.4 hPa Calm     82 % 0 mm
15:48 8.1 °C 5 °C 1030.4 hPa SSE 2.3 km/h 6.4 km/h 81 % 0 mm
15:53 8 °C 4.9 °C 1030.4 hPa SSE 1.3 km/h 3.7 km/h 81 % 0 mm
15:58 8 °C 4.8 °C 1030.4 hPa SSE 0.2 km/h 1.9 km/h 80 % 0 mm
16:03 8 °C 4.8 °C 1030.4 hPa SSE 0.8 km/h 3.7 km/h 80 % 0 mm
16:08 8.1 °C 4.8 °C 1030.7 hPa SSE 3.9 km/h 5.6 km/h 80 % 0 mm
16:13 8.1 °C 4.8 °C 1030.7 hPa SE 5.8 km/h 7.4 km/h 80 % 0 mm
16:18 8.1 °C 4.9 °C 1030.7 hPa SSE 4.2 km/h 5.6 km/h 80 % 0 mm
16:23 8.1 °C 4.9 °C 1030.7 hPa SE 1.9 km/h 5.6 km/h 80 % 0 mm
16:28 8.1 °C 4.7 °C 1030.7 hPa SSE 0.2 km/h 1.9 km/h 79 % 0 mm
16:33 8.1 °C 4.7 °C 1030.7 hPa Calm   5.6 km/h 79 % 0 mm
16:38 8.1 °C 4.6 °C 1030.4 hPa SE 1.9 km/h 5.6 km/h 79 % 0 mm
16:43 8.1 °C 4.8 °C 1030.4 hPa SE 0.6 km/h 3.2 km/h 80 % 0 mm
16:48 8 °C 4.8 °C 1030.4 hPa SE 1.9 km/h 3.7 km/h 80 % 0 mm
16:53 7.9 °C 4.7 °C 1030.4 hPa SE 0.3 km/h 1.9 km/h 80 % 0 mm
17:03 7.7 °C 4.5 °C 1030.7 hPa SE 0.6 km/h 1.9 km/h 80 % 0 mm
17:08 7.7 °C 4.4 °C 1030.4 hPa SE 0.5 km/h 3.7 km/h 80 % 0 mm
17:14 7.6 °C 4.5 °C 1030.4 hPa SE 1.8 km/h 3.7 km/h 81 % 0 mm
17:19 7.4 °C 4.4 °C 1030.4 hPa SE 3.1 km/h 5.6 km/h 81 % 0 mm
17:24 7.3 °C 4.3 °C 1030.4 hPa SE 2.9 km/h 5.6 km/h 81 % 0 mm
17:29 7.3 °C 4.2 °C 1030 hPa SE 2.3 km/h 5.6 km/h 81 % 0 mm
17:34 7.2 °C 4.3 °C 1030 hPa SE 2.6 km/h 5.6 km/h 82 % 0 mm
17:39 7.1 °C 4.2 °C 1030 hPa SE 0.3 km/h 4.8 km/h 82 % 0 mm
17:44 7 °C 4.1 °C 1030 hPa SE 1 km/h 5.6 km/h 82 % 0 mm
17:49 6.9 °C 4.2 °C 1030 hPa SE 0.8 km/h 1.9 km/h 83 % 0 mm
17:54 6.8 °C 4.2 °C 1030 hPa SE 0.8 km/h 3.7 km/h 83 % 0 mm
17:59 6.8 °C 4.1 °C 1030 hPa Calm   3.7 km/h 83 % 0 mm
18:04 6.7 °C 4 °C 1030 hPa SE 0.2 km/h 3.7 km/h 83 % 0 mm
18:09 6.7 °C 4 °C 1030 hPa SE 0.2 km/h 1.9 km/h 83 % 0 mm
18:14 6.6 °C 3.9 °C 1030 hPa SE 3.5 km/h 5.6 km/h 83 % 0 mm
18:19 6.5 °C 4 °C 1030 hPa SE 3.1 km/h 5.6 km/h 84 % 0 mm
18:24 6.4 °C 3.9 °C 1030 hPa SE 1.8 km/h 5.6 km/h 84 % 0 mm
18:29 6.4 °C 3.9 °C 1030 hPa SE 2.7 km/h 5.6 km/h 84 % 0 mm
18:34 6.4 °C 3.9 °C 1030 hPa Calm     84 % 0 mm
18:39 6.3 °C 3.8 °C 1030.4 hPa SE 1.6 km/h 5.6 km/h 84 % 0 mm
18:44 6.3 °C 3.8 °C 1030.4 hPa SE 0.6 km/h 3.7 km/h 84 % 0 mm
18:49 6.2 °C 3.7 °C 1030.4 hPa Calm   1.9 km/h 84 % 0 mm
18:54 6.2 °C 3.7 °C 1030.4 hPa Calm     84 % 0 mm
19:05 6.1 °C 3.6 °C 1030.7 hPa Calm     84 % 0 mm
19:10 6 °C 3.5 °C 1030.7 hPa Calm     84 % 0 mm
19:15 5.9 °C 3.4 °C 1030.7 hPa Calm     84 % 0 mm
19:20 5.8 °C 3.3 °C 1030.7 hPa Calm     84 % 0 mm
19:22 5.8 °C 3.3 °C 1031 hPa Calm     84 % 0 mm
19:27 5.7 °C 3.2 °C 1030.7 hPa Calm     84 % 0 mm
19:32 5.5 °C 3 °C 1030.7 hPa Calm     84 % 0 mm
19:37 5.3 °C 2.8 °C 1030.7 hPa Calm     84 % 0 mm
19:42 5.2 °C 2.9 °C 1030.7 hPa Calm     85 % 0 mm
19:47 5.1 °C 2.8 °C 1031 hPa Calm     85 % 0 mm
19:52 4.9 °C 2.6 °C 1030.7 hPa Calm     85 % 0 mm
19:57 4.8 °C 2.6 °C 1030.4 hPa Calm     86 % 0 mm
20:02 4.7 °C 2.5 °C 1030.4 hPa SE 0.3 km/h 1.9 km/h 86 % 0 mm
20:07 4.6 °C 2.4 °C 1030.4 hPa SE 0.5 km/h 1.9 km/h 86 % 0 mm
20:12 4.5 °C 2.3 °C 1030.4 hPa SE 0.3 km/h 1.9 km/h 86 % 0 mm
20:17 4.4 °C 2.4 °C 1030.7 hPa SE 0.6 km/h 1.9 km/h 87 % 0 mm
20:22 4.4 °C 2.4 °C 1030.7 hPa Calm   1.9 km/h 87 % 0 mm
20:27 4.3 °C 2.3 °C 1030.7 hPa Calm   1.9 km/h 87 % 0 mm
20:32 4.3 °C 2.5 °C 1030.7 hPa SE 1 km/h 3.7 km/h 88 % 0 mm
20:37 4.3 °C 2.5 °C 1030.7 hPa Calm   1.9 km/h 88 % 0 mm
20:42 4.4 °C 2.9 °C 1030.4 hPa SE 2.4 km/h 5.6 km/h 90 % 0 mm
20:47 4.6 °C 3.1 °C 1030.7 hPa SE 0.5 km/h 3.7 km/h 90 % 0 mm
20:52 4.7 °C 3.3 °C 1030.7 hPa SE 1.1 km/h 3.7 km/h 91 % 0 mm
20:57 4.8 °C 3.4 °C 1030.4 hPa SE 1.6 km/h 3.7 km/h 91 % 0 mm
21:02 4.8 °C 3.5 °C 1030.4 hPa SE 1.3 km/h 4.8 km/h 91 % 0 mm
21:07 4.9 °C 3.6 °C 1030.7 hPa SE 1 km/h 3.2 km/h 91 % 0 mm
21:13 5.1 °C 3.8 °C 1030.7 hPa Calm     91 % 0 mm
21:14 5.1 °C 3.8 °C 1030.7 hPa Calm     91 % 0 mm
21:19 5.2 °C 3.9 °C 1030.7 hPa Calm     91 % 0 mm
21:24 5.3 °C 3.8 °C 1031 hPa Calm     90 % 0 mm
21:29 5.4 °C 3.9 °C 1030.7 hPa Calm   1.9 km/h 90 % 0 mm
21:34 5.5 °C 4 °C 1030.7 hPa SE 0.5 km/h 1.9 km/h 90 % 0 mm
21:39 5.6 °C 4.1 °C 1030.7 hPa Calm     90 % 0 mm
21:44 5.7 °C 4 °C 1030.7 hPa SE 0.6 km/h 1.9 km/h 89 % 0 mm
21:49 5.7 °C 4.1 °C 1030.7 hPa SE 0.8 km/h 3.2 km/h 89 % 0 mm
21:54 5.8 °C 4.2 °C 1030.4 hPa Calm   1.9 km/h 89 % 0 mm
21:59 5.9 °C 4.1 °C 1030.4 hPa Calm     88 % 0 mm
22:04 5.9 °C 4.1 °C 1030.7 hPa Calm     88 % 0 mm
22:09 6 °C 4.2 °C 1030.7 hPa Calm     88 % 0 mm
22:14 6.1 °C 4.2 °C 1030.7 hPa Calm     88 % 0 mm
22:19 6.1 °C 4.2 °C 1030.7 hPa Calm     88 % 0 mm
22:22 6.1 °C 4.1 °C 1030.4 hPa Calm   1.9 km/h 87 % 0 mm
22:27 6.2 °C 4.2 °C 1030.7 hPa SE 1 km/h 3.7 km/h 87 % 0 mm
22:32 6.2 °C 4.2 °C 1030.7 hPa Calm     87 % 0 mm
22:42 6.3 °C 4.3 °C 1030.7 hPa Calm   3.7 km/h 87 % 0 mm
22:47 6.3 °C 4.3 °C 1030.7 hPa Calm     87 % 0 mm
22:52 6.4 °C 4.2 °C 1030.4 hPa Calm   1.9 km/h 86 % 0 mm
22:57 6.4 °C 4.2 °C 1030.7 hPa Calm   1.9 km/h 86 % 0 mm
23:03 6.4 °C 4.3 °C 1030.4 hPa Calm     86 % 0 mm
23:07 6.4 °C 4.3 °C 1030.4 hPa SE 0.2 km/h   86 % 0 mm
23:13 6.5 °C 4.3 °C 1030.4 hPa Calm     86 % 0 mm
23:18 6.5 °C 4.3 °C 1030.4 hPa Calm     86 % 0 mm
23:23 6.6 °C 4.4 °C 1030.4 hPa Calm     86 % 0 mm
23:28 6.6 °C 4.2 °C 1030 hPa Calm     85 % 0 mm
23:33 6.6 °C 4.3 °C 1030 hPa SE 3.2 km/h 6.4 km/h 85 % 0 mm
23:38 6.6 °C 4.3 °C 1030 hPa SE 3.2 km/h 5.6 km/h 85 % 0 mm
23:43 6.6 °C 4.3 °C 1030 hPa SE 1 km/h 3.7 km/h 85 % 0 mm
23:48 6.7 °C 4.3 °C 1030 hPa SE 1.1 km/h 3.7 km/h 85 % 0 mm
23:53 6.7 °C 4.3 °C 1030 hPa SE 1.6 km/h 3.7 km/h 85 % 0 mm
23:57 6.7 °C 4.2 °C 1029.7 hPa Calm   1.6 km/h 84 % 0 mm
Crab Meadow Weather
Compliments of Weather Underground - 3 mb

Script developed by  Jim McMurry - jmcmurry@mwt.net Adapted for the template by  Wim van der Kuil - Leuven-Template.eu

Pollen: Each year American vegetation spews forth some 1,000,000 tons of pollen into the air we breathe.